Rio Vista Municipal (O88)
Rio Vista, CA
Field Elevation: 23
Lat: 38°11.60N  Long: 121°42.22W
CTAF/Unicom Freq: 122.7250
   
     For Weather-by-Phone, call (707) 374-5396
Weather Advisories
2015-07-30   06:02 Z
Altimeter 29.87" Hg
Wind 220° @ 14 KT
Gusts 18 KT
Visibility 10 SM
Ceiling CLR
Temperature 23° C (73° F)
Dewpoint 11° C (52° F)
Relative Humidity 45%
Density Altitude 1,000 feet
Condensation Altitude 6,400 feet
Wind and Runways
Indicated Runway = 25
Headwind = 12 kt
Crosswind = 7 kt
History
 
 
 
More Info
All DigiWx sites map
NOAA Forecast
 
Airport IQ 5010
(DUC) Stack Farm
(CA37) Dominican
 
about DigiWx
 
FAA Disclaimer: The data displayed is for advisory purposes only and is not to be used for flight planning or operations. For official data, please call (707) 374-5396 to hear the current automated AWOS voice message.
  METAR O88 300602Z AUTO 22014G18KT VIS 10 SM CLR 23/11 A2987